TimeAEST,TemperatureF,Dew PointF,Humidity,Sea Level PressureIn,VisibilityMPH,Wind Direction,Wind SpeedMPH,Gust SpeedMPH,PrecipitationIn,Events,Conditions,WindDirDegrees,DateUTC
12:00 AM,74,66,70,30.03,,SSE,8.1,,,,,150,2013-10-09 14:00:00
12:00 AM,75.2,66.2,73,30.04,6.2,SSE,8.1,-,N/A,,Mostly Cloudy,150,2013-10-09 14:00:00
12:30 AM,75.2,66.2,73,30.01,6.2,SSE,8.1,-,N/A,,Mostly Cloudy,160,2013-10-09 14:30:00
1:00 AM,76,67,65,30.03,,South,8.1,,,,,170,2013-10-09 15:00:00
1:00 AM,75.2,66.2,73,30.01,6.2,South,8.1,-,N/A,,Scattered Clouds,170,2013-10-09 15:00:00
1:30 AM,75.2,66.2,73,30.01,6.2,SSE,8.1,-,N/A,,Mostly Cloudy,150,2013-10-09 15:30:00
2:00 AM,75.2,68.0,78,30.01,6.2,SE,9.2,-,N/A,,Mostly Cloudy,140,2013-10-09 16:00:00
2:30 AM,77.0,66.2,69,29.98,6.2,SE,10.4,-,N/A,,Scattered Clouds,130,2013-10-09 16:30:00
3:00 AM,77,65,59,29.99,,ESE,12.7,,,,Overcast,110,2013-10-09 17:00:00
3:00 AM,77.0,66.2,69,29.98,6.2,ESE,12.7,-,N/A,,Scattered Clouds,110,2013-10-09 17:00:00
3:30 AM,77.0,64.4,65,29.98,6.2,ESE,10.4,-,N/A,,Scattered Clouds,110,2013-10-09 17:30:00
4:00 AM,76,66,63,30.00,,SE,10.4,,,,,130,2013-10-09 18:00:00
4:00 AM,75.2,66.2,73,29.98,6.2,SE,10.4,-,N/A,,Scattered Clouds,130,2013-10-09 18:00:00
4:30 AM,75.2,66.2,73,29.98,6.2,SE,8.1,-,N/A,,Scattered Clouds,140,2013-10-09 18:30:00
5:00 AM,75.2,66.2,73,30.01,6.2,SSE,8.1,-,N/A,,Scattered Clouds,160,2013-10-09 19:00:00
5:30 AM,75.2,66.2,73,30.01,6.2,SSE,6.9,-,N/A,,Mostly Cloudy,150,2013-10-09 19:30:00
6:00 AM,76,66,63,30.02,19,SSE,8.1,,,,Partly Cloudy,150,2013-10-09 20:00:00
6:00 AM,75.2,66.2,73,30.01,6.2,SSE,8.1,-,N/A,,Scattered Clouds,150,2013-10-09 20:00:00
6:30 AM,77.0,64.4,65,30.01,6.2,ESE,10.4,-,N/A,,Partly Cloudy,120,2013-10-09 20:30:00
7:00 AM,79,65,52,30.04,,SE,8.1,,,,,130,2013-10-09 21:00:00
7:00 AM,78.8,64.4,61,30.04,6.2,SE,8.1,-,N/A,,Partly Cloudy,130,2013-10-09 21:00:00
7:30 AM,80.6,62.6,54,30.04,6.2,ESE,10.4,-,N/A,,Partly Cloudy,110,2013-10-09 21:30:00
8:00 AM,80.6,64.4,58,30.06,6.2,SE,10.4,-,N/A,,Scattered Clouds,130,2013-10-09 22:00:00
8:30 AM,80.6,64.4,58,30.06,6.2,East,10.4,-,N/A,,Scattered Clouds,100,2013-10-09 22:30:00
9:00 AM,81,63,45,30.08,19,SE,16.1,,,,Partly Cloudy,130,2013-10-09 23:00:00
9:00 AM,80.6,62.6,54,30.06,6.2,SE,16.1,-,N/A,,Scattered Clouds,130,2013-10-09 23:00:00
9:30 AM,82.4,64.4,54,30.06,6.2,SE,11.5,-,N/A,,Scattered Clouds,130,2013-10-09 23:30:00
10:00 AM,80,64,48,30.08,,ESE,13.8,,,,,120,2013-10-10 00:00:00
10:00 AM,80.6,64.4,58,30.06,6.2,ESE,13.8,-,N/A,,Scattered Clouds,120,2013-10-10 00:00:00
10:30 AM,80.6,64.4,58,30.06,6.2,East,17.3,-,N/A,,Scattered Clouds,90,2013-10-10 00:30:00
11:00 AM,82.4,62.6,51,30.04,6.2,ESE,16.1,-,N/A,,Partly Cloudy,110,2013-10-10 01:00:00
11:30 AM,86.0,62.6,45,30.04,6.2,ESE,20.7,-,N/A,,Partly Cloudy,120,2013-10-10 01:30:00
12:00 PM,84,64,42,30.02,19,ESE,18.4,,,,Partly Cloudy,110,2013-10-10 02:00:00
12:00 PM,84.2,64.4,51,30.01,6.2,ESE,18.4,-,N/A,,Partly Cloudy,110,2013-10-10 02:00:00
12:30 PM,86.0,57.2,37,30.01,6.2,ESE,19.6,-,N/A,,Partly Cloudy,110,2013-10-10 02:30:00
1:00 PM,85,58,29,29.99,,ESE,19.6,,,,,110,2013-10-10 03:00:00
1:00 PM,86.0,57.2,37,29.98,6.2,ESE,19.6,-,N/A,,Partly Cloudy,110,2013-10-10 03:00:00
1:30 PM,86.0,57.2,37,29.98,6.2,ESE,19.6,-,N/A,,Partly Cloudy,110,2013-10-10 03:30:00
2:00 PM,86.0,57.2,37,29.95,6.2,SE,19.6,-,N/A,,Partly Cloudy,130,2013-10-10 04:00:00
2:30 PM,86.0,57.2,37,29.95,6.2,ESE,19.6,-,N/A,,Partly Cloudy,120,2013-10-10 04:30:00
3:00 PM,85,54,25,29.94,19,ESE,19.6,,,,Partly Cloudy,120,2013-10-10 05:00:00
3:00 PM,86.0,53.6,33,29.95,6.2,ESE,19.6,-,N/A,,Partly Cloudy,120,2013-10-10 05:00:00
3:30 PM,84.2,59.0,42,29.92,6.2,ESE,18.4,-,N/A,,Partly Cloudy,110,2013-10-10 05:30:00
4:00 PM,83,59,34,29.95,,ESE,18.4,,,,,110,2013-10-10 06:00:00
4:00 PM,82.4,59.0,45,29.95,6.2,ESE,18.4,-,N/A,,Partly Cloudy,110,2013-10-10 06:00:00
4:30 PM,82.4,60.8,48,29.95,6.2,ESE,18.4,-,N/A,,Partly Cloudy,110,2013-10-10 06:30:00
5:00 PM,80.6,59.0,48,29.95,6.2,ESE,18.4,-,N/A,,Partly Cloudy,110,2013-10-10 07:00:00
5:30 PM,78.8,59.0,51,29.95,6.2,ESE,17.3,-,N/A,,Partly Cloudy,110,2013-10-10 07:30:00
6:00 PM,78,61,46,29.96,,ESE,15.0,,,,,110,2013-10-10 08:00:00
6:00 PM,78.8,60.8,54,29.95,6.2,ESE,15.0,-,N/A,,Partly Cloudy,110,2013-10-10 08:00:00
6:30 PM,77.0,62.6,61,29.95,6.2,ESE,15.0,-,N/A,,Partly Cloudy,110,2013-10-10 08:30:00
7:00 PM,76,62,54,29.98,,SSE,11.5,,,,,150,2013-10-10 09:00:00
7:00 PM,77.0,62.6,61,29.98,6.2,SSE,11.5,-,N/A,,Scattered Clouds,150,2013-10-10 09:00:00
7:30 PM,75.2,62.6,65,29.98,6.2,South,8.1,-,N/A,,Scattered Clouds,170,2013-10-10 09:30:00
8:00 PM,75.2,64.4,69,29.98,6.2,SE,9.2,-,N/A,,Scattered Clouds,140,2013-10-10 10:00:00
8:30 PM,75.2,64.4,69,29.98,6.2,SSE,6.9,-,N/A,,Scattered Clouds,150,2013-10-10 10:30:00
9:00 PM,74,64,64,30.01,,South,4.6,,,,,170,2013-10-10 11:00:00
9:00 PM,75.2,64.4,69,30.01,6.2,South,4.6,-,N/A,,Scattered Clouds,170,2013-10-10 11:00:00
9:30 PM,75.2,64.4,69,30.01,6.2,South,6.9,-,N/A,,Scattered Clouds,170,2013-10-10 11:30:00
10:00 PM,75,64,61,30.02,,SSE,6.9,,,,,160,2013-10-10 12:00:00
10:00 PM,75.2,64.4,69,30.01,6.2,SSE,6.9,-,N/A,,Scattered Clouds,160,2013-10-10 12:00:00
11:00 PM,75.2,64.4,69,30.01,6.2,South,6.9,-,N/A,,Scattered Clouds,170,2013-10-10 13:00:00
11:30 PM,75.2,62.6,65,30.01,6.2,South,5.8,-,N/A,,Scattered Clouds,180,2013-10-10 13:30:00